• în Republica Moldova
  • Lista ţărilor
  • Pe 7 zile
  • Temperatura apei
  • Hartă satelitară
  • Meteo pe hartă
  • Widget-uri
  • user-avatar
    Intrare

    Meteo pe oră la Ciudad Bolívar

    Astăzi, 23 Ianuarie, Miercuri

    Timp Temperatura Precipitaţii Vânt Presiune Umiditate
    00:00 +27°C° 0 mm 6 m/s 755 mmHg 74%
    01:00 +26°C° 0 mm 5 m/s 755 mmHg 77%
    02:00 +26°C° 0 mm 5 m/s 754 mmHg 79%
    03:00 +26°C° 0 mm 5 m/s 754 mmHg 81%
    04:00 +25°C° 0 mm 4 m/s 755 mmHg 82%
    05:00 +25°C° 0 mm 4 m/s 755 mmHg 84%
    06:00 +26°C° 0.1 mm 4 m/s 755 mmHg 82%
    07:00 +26°C° 0.1 mm 4 m/s 756 mmHg 79%
    08:00 +26°C° 0.1 mm 5 m/s 756 mmHg 77%
    09:00 +28°C° 0 mm 4 m/s 756 mmHg 69%
    10:00 +30°C° 0 mm 4 m/s 756 mmHg 61%
    11:00 +32°C° 0 mm 4 m/s 756 mmHg 53%
    12:00 +33°C° 0 mm 4 m/s 755 mmHg 49%
    13:00 +34°C° 0 mm 4 m/s 755 mmHg 45%
    14:00 +35°C° 0 mm 4 m/s 754 mmHg 41%
    15:00 +35°C° 0 mm 5 m/s 753 mmHg 42%
    16:00 +34°C° 0 mm 5 m/s 753 mmHg 44%
    17:00 +34°C° 0 mm 6 m/s 752 mmHg 45%
    18:00 +33°C° 0 mm 5 m/s 753 mmHg 50%
    19:00 +30°C° 0 mm 5 m/s 753 mmHg 54%
    20:00 +29°C° 0 mm 5 m/s 753 mmHg 59%
    21:00 +28°C° 0 mm 5 m/s 754 mmHg 61%
    22:00 +28°C° 0 mm 5 m/s 754 mmHg 64%
    23:00 +27°C° 0 mm 5 m/s 755 mmHg 66%

    Mâine, 24 Ianuarie, Joi

    Timp Temperatura Precipitaţii Vânt Presiune Umiditate
    00:00 +27°C° 0 mm 5 m/s 755 mmHg 70%
    01:00 +26°C° 0 mm 4 m/s 754 mmHg 74%
    02:00 +26°C° 0 mm 4 m/s 754 mmHg 78%
    03:00 +25°C° 0 mm 4 m/s 754 mmHg 81%
    04:00 +25°C° 0 mm 3 m/s 754 mmHg 83%
    05:00 +25°C° 0 mm 3 m/s 754 mmHg 85%
    06:00 +25°C° 0 mm 3 m/s 754 mmHg 82%
    07:00 +26°C° 0 mm 4 m/s 755 mmHg 79%
    08:00 +26°C° 0 mm 5 m/s 755 mmHg 75%
    09:00 +28°C° 0 mm 5 m/s 755 mmHg 66%
    10:00 +30°C° 0 mm 5 m/s 755 mmHg 57%
    11:00 +33°C° 0 mm 5 m/s 756 mmHg 48%
    12:00 +33°C° 0 mm 5 m/s 755 mmHg 47%
    13:00 +33°C° 0 mm 4 m/s 754 mmHg 46%
    14:00 +34°C° 0 mm 4 m/s 753 mmHg 45%
    15:00 +34°C° 0 mm 4 m/s 752 mmHg 45%
    16:00 +34°C° 0 mm 4 m/s 752 mmHg 45%
    17:00 +34°C° 0 mm 4 m/s 752 mmHg 45%
    18:00 +33°C° 0 mm 4 m/s 752 mmHg 48%
    19:00 +32°C° 0 mm 4 m/s 753 mmHg 51%
    20:00 +30°C° 0 mm 4 m/s 753 mmHg 54%
    21:00 +29°C° 0 mm 5 m/s 754 mmHg 58%
    22:00 +28°C° 0 mm 5 m/s 754 mmHg 61%
    23:00 +28°C° 0 mm 5 m/s 754 mmHg 64%

    Poimâine, 25 Ianuarie, Vineri

    Timp Temperatura Precipitaţii Vânt Presiune Umiditate
    00:00 +27°C° 0 mm 5 m/s 754 mmHg 67%
    01:00 +26°C° 0 mm 5 m/s 754 mmHg 71%
    02:00 +26°C° 0 mm 5 m/s 754 mmHg 74%
    03:00 +25°C° 0 mm 4 m/s 754 mmHg 76%
    04:00 +25°C° 0 mm 4 m/s 754 mmHg 79%
    05:00 +24°C° 0 mm 3 m/s 754 mmHg 81%
    06:00 +25°C° 0 mm 4 m/s 754 mmHg 79%
    07:00 +25°C° 0 mm 4 m/s 755 mmHg 76%
    08:00 +26°C° 0 mm 4 m/s 755 mmHg 74%
    09:00 +28°C° 0 mm 4 m/s 755 mmHg 62%
    10:00 +30°C° 0 mm 5 m/s 755 mmHg 50%
    11:00 +33°C° 0 mm 5 m/s 756 mmHg 38%
    12:00 +35°C° 0 mm 5 m/s 754 mmHg 35%
    13:00 +36°C° 0 mm 4 m/s 753 mmHg 31%
    14:00 +37°C° 0 mm 4 m/s 752 mmHg 28%
    15:00 +37°C° 0 mm 5 m/s 751 mmHg 29%
    16:00 +36°C° 0 mm 5 m/s 751 mmHg 31%
    17:00 +36°C° 0 mm 5 m/s 750 mmHg 33%
    18:00 +34°C° 0 mm 5 m/s 751 mmHg 40%
    19:00 +33°C° 0 mm 6 m/s 751 mmHg 47%
    20:00 +30°C° 0 mm 6 m/s 752 mmHg 54%
    21:00 +30°C° 0 mm 6 m/s 752 mmHg 56%
    22:00 +29°C° 0 mm 6 m/s 753 mmHg 58%
    23:00 +28°C° 0 mm 6 m/s 753 mmHg 61%

    26 Ianuarie, Sâmbătă

    Timp Temperatura Precipitaţii Vânt Presiune Umiditate
    00:00 +27°C° 0 mm 5 m/s 753 mmHg 64%
    01:00 +27°C° 0 mm 5 m/s 753 mmHg 67%
    02:00 +26°C° 0 mm 5 m/s 753 mmHg 71%
    03:00 +25°C° 0 mm 4 m/s 753 mmHg 74%
    04:00 +25°C° 0 mm 4 m/s 753 mmHg 77%
    05:00 +24°C° 0 mm 3 m/s 753 mmHg 80%
    06:00 +25°C° 0 mm 4 m/s 754 mmHg 76%
    07:00 +25°C° 0 mm 4 m/s 754 mmHg 72%
    08:00 +26°C° 0 mm 4 m/s 755 mmHg 68%
    09:00 +28°C° 0 mm 4 m/s 755 mmHg 56%
    10:00 +32°C° 0 mm 4 m/s 755 mmHg 43%
    11:00 +34°C° 0 mm 5 m/s 755 mmHg 30%
    12:00 +35°C° 0 mm 4 m/s 753 mmHg 27%
    13:00 +37°C° 0 mm 4 m/s 752 mmHg 23%
    14:00 +38°C° 0 mm 4 m/s 751 mmHg 19%
    15:00 +38°C° 0 mm 4 m/s 750 mmHg 20%
    16:00 +39°C° 0 mm 5 m/s 750 mmHg 21%
    17:00 +37°C° 0 mm 5 m/s 749 mmHg 22%
    18:00 +36°C° 0 mm 5 m/s 750 mmHg 28%
    19:00 +34°C° 0 mm 5 m/s 750 mmHg 33%
    20:00 +32°C° 0 mm 5 m/s 751 mmHg 39%
    21:00 +30°C° 0 mm 5 m/s 751 mmHg 47%
    22:00 +29°C° 0 mm 6 m/s 752 mmHg 54%
    23:00 +28°C° 0 mm 6 m/s 752 mmHg 62%

    27 Ianuarie, Duminică

    Timp Temperatura Precipitaţii Vânt Presiune Umiditate
    00:00 +28°C° 0 mm 6 m/s 752 mmHg 67%
    01:00 +27°C° 0 mm 6 m/s 752 mmHg 72%
    02:00 +26°C° 0 mm 5 m/s 752 mmHg 76%
    03:00 +26°C° 0 mm 5 m/s 752 mmHg 78%
    04:00 +25°C° 0 mm 5 m/s 752 mmHg 80%
    05:00 +25°C° 0 mm 5 m/s 752 mmHg 82%
    06:00 +26°C° 0 mm 5 m/s 753 mmHg 80%
    07:00 +26°C° 0 mm 5 m/s 753 mmHg 77%
    08:00 +26°C° 0 mm 5 m/s 754 mmHg 74%
    09:00 +28°C° 0 mm 5 m/s 754 mmHg 67%
    10:00 +29°C° 0 mm 5 m/s 754 mmHg 61%
    11:00 +32°C° 0 mm 4 m/s 754 mmHg 54%
    12:00 +33°C° 0 mm 4 m/s 753 mmHg 47%
    13:00 +35°C° 0 mm 4 m/s 752 mmHg 41%
    14:00 +37°C° 0 mm 4 m/s 751 mmHg 34%
    15:00 +37°C° 0 mm 4 m/s 750 mmHg 34%
    16:00 +37°C° 0 mm 4 m/s 750 mmHg 33%
    17:00 +37°C° 0 mm 4 m/s 749 mmHg 33%
    18:00 +36°C° 0 mm 5 m/s 749 mmHg 39%
    19:00 +34°C° 0 mm 5 m/s 750 mmHg 45%
    20:00 +33°C° 0 mm 6 m/s 750 mmHg 51%
    21:00 +32°C° 0 mm 6 m/s 751 mmHg 53%
    22:00 +30°C° 0 mm 6 m/s 751 mmHg 56%
    23:00 +29°C° 0 mm 6 m/s 752 mmHg 58%

    28 Ianuarie, Luni

    Timp Temperatura Precipitaţii Vânt Presiune Umiditate
    00:00 +28°C° 0 mm 6 m/s 752 mmHg 64%
    01:00 +27°C° 0 mm 6 m/s 752 mmHg 70%
    02:00 +26°C° 0 mm 6 m/s 752 mmHg 76%
    03:00 +26°C° 0 mm 5 m/s 752 mmHg 78%
    04:00 +26°C° 0 mm 5 m/s 752 mmHg 79%
    05:00 +26°C° 0 mm 4 m/s 752 mmHg 81%
    06:00 +26°C° 0 mm 4 m/s 753 mmHg 80%
    07:00 +26°C° 0 mm 5 m/s 753 mmHg 80%
    08:00 +27°C° 0 mm 5 m/s 754 mmHg 79%
    09:00 +28°C° 0 mm 5 m/s 754 mmHg 73%
    10:00 +29°C° 0 mm 5 m/s 754 mmHg 67%
    11:00 +30°C° 0 mm 5 m/s 754 mmHg 61%
    12:00 +32°C° 0 mm 4 m/s 753 mmHg 57%
    13:00 +33°C° 0 mm 4 m/s 752 mmHg 53%
    14:00 +34°C° 0 mm 4 m/s 751 mmHg 48%
    15:00 +34°C° 0 mm 4 m/s 750 mmHg 47%
    16:00 +35°C° 0 mm 4 m/s 750 mmHg 46%
    17:00 +35°C° 0 mm 4 m/s 749 mmHg 44%
    18:00 +34°C° 0 mm 4 m/s 749 mmHg 48%
    19:00 +33°C° 0 mm 4 m/s 750 mmHg 52%
    20:00 +32°C° 0 mm 4 m/s 750 mmHg 56%
    21:00 +30°C° 0 mm 4 m/s 751 mmHg 59%
    22:00 +29°C° 0 mm 5 m/s 751 mmHg 62%
    23:00 +29°C° 0 mm 6 m/s 752 mmHg 65%
    Arată mai mult